Location: Ellerstadt
(49.4644°N, 8.2615°E)
Time: 18:51:03
(UTC+00:00)

A-11 Canister half - Visible Passes

Search period start: 18 June 2021 00:00
Search period end: 28 June 2021 00:00
Orbit: 1527 x 1681 km, 47.3° (Epoch: 18 June)

Date Brightness Start Highest point End Pass type
(mag) Time Alt. Az. Time Alt. Az. Time Alt. Az.
18 Jun 8.9 00:20:16 10° WSW 00:29:33 72° SSE 00:38:49 10° E visible
18 Jun 9.0 02:25:01 10° W 02:34:19 77° S 02:43:42 10° ESE visible
18 Jun 9.3 21:55:31 10° SSW 22:03:52 37° SE 22:12:08 10° E visible
18 Jun 8.9 23:58:38 10° WSW 00:07:55 71° SSE 00:17:10 10° E visible
19 Jun 9.0 02:03:22 10° W 02:12:41 77° S 02:22:03 10° ESE visible
19 Jun 9.4 21:34:01 10° SSW 21:42:17 36° SE 21:50:26 10° E visible
19 Jun 8.9 23:37:00 10° WSW 23:46:18 69° SSE 23:55:31 10° E visible
20 Jun 8.9 01:41:43 10° W 01:51:02 78° S 02:00:24 10° ESE visible
20 Jun 9.4 21:12:31 10° SSW 21:20:42 35° SE 21:28:46 10° E visible
20 Jun 8.9 23:15:22 10° WSW 23:24:39 68° SSE 23:33:52 10° E visible
21 Jun 8.9 01:20:04 10° W 01:29:23 78° S 01:38:45 10° ESE visible
21 Jun 9.5 20:51:02 10° SSW 20:59:07 33° SE 21:07:05 10° E visible
21 Jun 8.9 22:53:45 10° WSW 23:03:01 67° SSE 23:12:13 10° E visible
22 Jun 8.9 00:58:25 10° W 01:07:45 79° S 01:17:05 10° E visible
22 Jun 9.5 20:29:33 10° SSW 20:37:32 32° SE 20:45:23 10° E visible
22 Jun 8.9 22:32:07 10° WSW 22:41:24 66° SSE 22:50:34 10° E visible
23 Jun 8.9 00:36:45 10° W 00:46:06 79° S 00:55:26 10° E visible
23 Jun 9.6 20:08:05 10° SSW 20:15:57 31° SE 20:23:42 10° E visible
23 Jun 8.9 22:10:29 10° WSW 22:19:46 64° SSE 22:28:55 10° E visible
24 Jun 8.9 00:15:05 10° W 00:24:28 79° S 00:33:48 10° E visible
24 Jun 9.0 02:20:01 10° W 02:29:01 57° SSW 02:38:04 10° SE visible
24 Jun 8.9 21:48:51 10° SW 21:58:08 63° SSE 22:07:17 10° E visible
24 Jun 8.9 23:53:26 10° W 00:02:49 79° S 00:12:08 10° E visible
25 Jun 9.0 01:58:21 10° W 02:07:23 58° SSW 02:16:29 10° SE visible
25 Jun 9.0 21:27:14 10° SW 21:36:31 62° SSE 21:45:38 10° E visible
25 Jun 8.9 23:31:46 10° W 23:41:10 80° S 23:50:29 10° E visible
26 Jun 9.0 01:36:41 10° W 01:45:47 60° SSW 01:54:53 10° SE visible
26 Jun 9.0 21:05:37 10° SW 21:14:53 60° SSE 21:23:59 10° E visible
26 Jun 8.9 23:10:06 10° W 23:19:31 80° S 23:28:51 10° E visible
27 Jun 8.9 01:15:02 10° W 01:24:09 61° SSW 01:33:17 10° SE visible
27 Jun 9.0 20:44:00 10° SW 20:53:16 59° SSE 21:02:20 10° E visible
27 Jun 8.9 22:48:26 10° W 22:57:52 79° S 23:07:11 10° E visible
